SAA227 SBGR-FACT

Flight info

Callsign SAA227
Flight time N/A
Altitude 39000
Route UREMI DCT DORLU DCT ROPAS DCT VUDAV DCT CIDER DCT 28S030W 31S020W 33S010W 34S000E 34S010E DCT APKIN UQ37 ASPIK ASPIK1B
Aircraft A333/H-SDE3GHIJ2J3J5M1RVWXY/LB2D1

Departure

Time N/A
Airport São Paulo/Guarulhos–Governor André Franco Montoro International Airport (SBGR)

Arrival

Time 2026-05-06 03:32
Airport Cape Town International Airport (FACT)
Time Latitude Longitude Altitude Speed Heading
2026-05-05 20:21 -23.48138 -45.88573 10950 ft 329 kts 75°
2026-05-05 20:21 -23.47517 -45.86112 11246 ft 345 kts 75°
2026-05-05 20:21 -23.46873 -45.83554 11743 ft 354 kts 75°
2026-05-05 20:22 -23.46225 -45.80950 12375 ft 358 kts 75°
2026-05-05 20:22 -23.45575 -45.78322 13048 ft 361 kts 75°
2026-05-05 20:22 -23.44919 -45.75665 13705 ft 365 kts 75°
2026-05-05 20:22 -23.44260 -45.72989 14328 ft 368 kts 75°
2026-05-05 20:23 -23.43596 -45.70284 14938 ft 372 kts 75°
2026-05-05 20:23 -23.42925 -45.67555 15536 ft 375 kts 75°
2026-05-05 20:23 -23.42249 -45.64801 16134 ft 378 kts 75°
2026-05-05 20:23 -23.41564 -45.62021 16701 ft 382 kts 75°
2026-05-05 20:24 -23.40872 -45.59217 17260 ft 385 kts 75°
2026-05-05 20:24 -23.40185 -45.56429 17795 ft 388 kts 75°
2026-05-05 20:24 -23.39471 -45.53538 18316 ft 392 kts 75°
2026-05-05 20:24 -23.38782 -45.50699 18813 ft 395 kts 76°
2026-05-05 20:25 -23.38127 -45.47778 19281 ft 399 kts 77°
2026-05-05 20:25 -23.37496 -45.44823 19740 ft 403 kts 78°
2026-05-05 20:25 -23.36871 -45.41839 20213 ft 406 kts 78°
2026-05-05 20:25 -23.36242 -45.38827 20673 ft 410 kts 78°
2026-05-05 20:26 -23.35774 -45.35762 21099 ft 413 kts 86°
2026-05-05 20:26 -23.35740 -45.32637 21541 ft 414 kts 96°
2026-05-05 20:26 -23.36245 -45.29551 21982 ft 415 kts 108°
2026-05-05 20:26 -23.37289 -45.26620 22401 ft 417 kts 116°
2026-05-05 20:27 -23.38585 -45.23793 22816 ft 418 kts 120°
2026-05-05 20:27 -23.40004 -45.21015 23213 ft 421 kts 121°
2026-05-05 20:27 -23.41479 -45.18252 23639 ft 423 kts 122°
2026-05-05 20:27 -23.42971 -45.15479 24019 ft 426 kts 122°
2026-05-05 20:28 -23.44465 -45.12685 24397 ft 428 kts 122°
2026-05-05 20:28 -23.45957 -45.09864 24764 ft 431 kts 122°
2026-05-05 20:28 -23.47448 -45.07013 25099 ft 434 kts 122°
2026-05-05 20:28 -23.48937 -45.04143 25455 ft 437 kts 122°
2026-05-05 20:29 -23.50431 -45.01250 25823 ft 440 kts 122°
2026-05-05 20:29 -23.51932 -44.98335 26149 ft 442 kts 122°
2026-05-05 20:29 -23.53439 -44.95407 26485 ft 444 kts 122°
2026-05-05 20:29 -23.54958 -44.92458 26819 ft 447 kts 122°
2026-05-05 20:30 -23.56482 -44.89499 27150 ft 449 kts 122°
2026-05-05 20:30 -23.58016 -44.86520 27463 ft 452 kts 122°
2026-05-05 20:30 -23.59555 -44.83527 27787 ft 454 kts 122°
2026-05-05 20:30 -23.61101 -44.80514 28116 ft 457 kts 122°
2026-05-05 20:31 -23.62658 -44.77482 28413 ft 459 kts 122°
2026-05-05 20:31 -23.64220 -44.74439 28736 ft 461 kts 122°
2026-05-05 20:31 -23.65791 -44.71380 29025 ft 463 kts 122°
2026-05-05 20:31 -23.67371 -44.68302 29326 ft 466 kts 123°
2026-05-05 20:32 -23.68957 -44.65210 29611 ft 468 kts 123°
2026-05-05 20:32 -23.70547 -44.62105 29879 ft 471 kts 123°
2026-05-05 20:32 -23.72150 -44.58977 30152 ft 473 kts 123°
2026-05-05 20:32 -23.73756 -44.55838 30432 ft 475 kts 123°
2026-05-05 20:33 -23.75360 -44.52702 30691 ft 477 kts 123°
2026-05-05 20:33 -23.76965 -44.49560 30961 ft 479 kts 123°
2026-05-05 20:33 -23.78591 -44.46376 31221 ft 481 kts 123°
2026-05-05 20:33 -23.80244 -44.43137 31476 ft 483 kts 123°
2026-05-05 20:34 -23.81882 -44.39926 31730 ft 485 kts 123°
2026-05-05 20:34 -23.83505 -44.36741 31977 ft 487 kts 122°
2026-05-05 20:34 -23.85148 -44.33513 32325 ft 486 kts 122°
2026-05-05 20:34 -23.86790 -44.30286 32663 ft 486 kts 122°
2026-05-05 20:35 -23.88428 -44.27064 32969 ft 485 kts 122°
2026-05-05 20:35 -23.90081 -44.23849 33297 ft 484 kts 124°
2026-05-05 20:35 -23.91830 -44.20713 33638 ft 482 kts 126°
2026-05-05 20:35 -23.93647 -44.17638 33936 ft 481 kts 127°
2026-05-05 20:36 -23.95498 -44.14585 34129 ft 483 kts 127°
2026-05-05 20:36 -23.99106 -44.08387 34157 ft 485 kts 121°
2026-05-05 20:37 -24.01285 -44.01386 34155 ft 492 kts 101°
2026-05-05 20:37 -24.01906 -43.93905 34157 ft 495 kts 95°
2026-05-05 20:38 -24.02193 -43.86374 34154 ft 496 kts 94°
2026-05-05 20:38 -24.02447 -43.78836 34146 ft 496 kts 95°
2026-05-05 20:39 -24.02733 -43.71300 34149 ft 496 kts 95°
2026-05-05 20:39 -24.03038 -43.63747 34129 ft 496 kts 95°
2026-05-05 20:40 -24.03345 -43.56234 34128 ft 496 kts 95°
2026-05-05 20:40 -24.03651 -43.48707 34128 ft 495 kts 95°
2026-05-05 20:41 -24.03949 -43.41172 34129 ft 496 kts 95°
2026-05-05 20:41 -24.04242 -43.33626 34128 ft 497 kts 95°
2026-05-05 20:42 -24.04532 -43.26080 34128 ft 497 kts 95°
2026-05-05 20:42 -24.04820 -43.18534 34128 ft 497 kts 95°
2026-05-05 20:43 -24.05101 -43.10983 34136 ft 497 kts 95°
2026-05-05 20:43 -24.05382 -43.03435 34138 ft 497 kts 95°
2026-05-05 20:44 -24.05657 -42.95880 34137 ft 497 kts 95°
2026-05-05 20:44 -24.05931 -42.88338 34137 ft 497 kts 95°
2026-05-05 20:45 -24.06335 -42.76996 34137 ft 498 kts 95°
2026-05-05 20:45 -24.06598 -42.69428 34138 ft 497 kts 94°
2026-05-05 20:46 -24.06853 -42.61922 34146 ft 497 kts 95°
2026-05-05 20:46 -24.07109 -42.54358 34147 ft 497 kts 95°
2026-05-05 20:47 -24.07361 -42.46795 34147 ft 497 kts 94°
2026-05-05 20:47 -24.07608 -42.39230 34146 ft 497 kts 94°
2026-05-05 20:48 -24.07854 -42.31661 34149 ft 498 kts 94°
2026-05-05 20:48 -24.08096 -42.24100 34179 ft 497 kts 94°
2026-05-05 20:49 -24.08216 -42.20315 34413 ft 498 kts 94°
2026-05-05 20:49 -24.08335 -42.16534 34720 ft 497 kts 94°
2026-05-05 20:49 -24.08453 -42.12762 35004 ft 496 kts 94°
2026-05-05 20:49 -24.08569 -42.08994 35263 ft 496 kts 94°
2026-05-05 20:50 -24.08684 -42.05229 35503 ft 495 kts 94°
2026-05-05 20:50 -24.08797 -42.01461 35736 ft 495 kts 94°
2026-05-05 20:50 -24.08910 -41.97693 35957 ft 495 kts 94°
2026-05-05 20:50 -24.09021 -41.93928 36185 ft 495 kts 94°
2026-05-05 20:51 -24.09132 -41.90165 36413 ft 495 kts 94°
2026-05-05 20:51 -24.09242 -41.86400 36618 ft 495 kts 94°
2026-05-05 20:51 -24.09351 -41.82638 36811 ft 495 kts 94°
2026-05-05 20:51 -24.09460 -41.78874 37062 ft 494 kts 94°
2026-05-05 20:52 -24.09565 -41.75181 37342 ft 491 kts 94°
2026-05-05 20:52 -24.09671 -41.71455 37626 ft 488 kts 94°
2026-05-05 20:52 -24.09774 -41.67745 37831 ft 487 kts 94°
2026-05-05 20:52 -24.09878 -41.64040 38002 ft 487 kts 94°
2026-05-05 20:53 -24.09981 -41.60334 38176 ft 487 kts 94°
2026-05-05 20:53 -24.10083 -41.56626 38343 ft 487 kts 94°
2026-05-05 20:53 -24.10183 -41.52927 38495 ft 487 kts 94°
2026-05-05 20:53 -24.10282 -41.49219 38626 ft 488 kts 95°
2026-05-05 20:54 -24.10381 -41.45500 38744 ft 489 kts 95°
2026-05-05 20:54 -24.10480 -41.41783 38897 ft 489 kts 95°
2026-05-05 20:54 -24.10578 -41.38068 39062 ft 488 kts 94°
2026-05-05 20:54 -24.10675 -41.34349 39156 ft 490 kts 94°
2026-05-05 20:55 -24.10868 -41.26887 39165 ft 491 kts 94°
2026-05-05 20:55 -24.11053 -41.19425 39165 ft 491 kts 94°
2026-05-05 20:56 -24.11235 -41.11963 39165 ft 490 kts 94°
2026-05-05 20:56 -24.11412 -41.04501 39165 ft 491 kts 94°
2026-05-05 20:57 -24.11589 -40.97032 39165 ft 491 kts 94°
2026-05-05 20:57 -24.11761 -40.89561 39165 ft 491 kts 94°
2026-05-05 20:58 -24.11932 -40.82097 39165 ft 490 kts 94°
2026-05-05 20:58 -24.12097 -40.74634 39165 ft 490 kts 94°
2026-05-05 20:59 -24.12260 -40.67175 39165 ft 490 kts 94°
2026-05-05 20:59 -24.12417 -40.59717 39164 ft 490 kts 94°
2026-05-05 21:00 -24.12572 -40.52261 39165 ft 490 kts 94°
2026-05-05 21:00 -24.12722 -40.44851 39164 ft 490 kts 94°
2026-05-05 21:01 -24.12869 -40.37385 39165 ft 490 kts 94°
2026-05-05 21:01 -24.13146 -40.29939 39166 ft 487 kts 102°
2026-05-05 21:02 -24.14969 -40.22913 39165 ft 477 kts 117°
2026-05-05 21:02 -24.17643 -40.16273 39165 ft 476 kts 120°
2026-05-05 21:03 -24.20463 -40.09723 39165 ft 476 kts 120°
2026-05-05 21:03 -24.23283 -40.03165 39165 ft 476 kts 120°
2026-05-05 21:04 -24.26075 -39.96585 39171 ft 476 kts 119°
2026-05-05 21:04 -24.28854 -39.89997 39183 ft 477 kts 120°
2026-05-05 21:05 -24.31165 -39.84506 39174 ft 477 kts 119°
2026-05-05 21:05 -24.33935 -39.77906 39174 ft 477 kts 119°
2026-05-05 21:06 -24.36706 -39.71296 39174 ft 477 kts 119°
2026-05-05 21:06 -24.39477 -39.64690 39174 ft 477 kts 119°
2026-05-05 21:07 -24.42249 -39.58069 39175 ft 477 kts 119°
2026-05-05 21:07 -24.45018 -39.51445 39174 ft 478 kts 119°
2026-05-05 21:08 -24.47786 -39.44811 39175 ft 478 kts 119°
2026-05-05 21:08 -24.50547 -39.38175 39173 ft 478 kts 118°
2026-05-05 21:09 -24.53310 -39.31534 39174 ft 478 kts 118°
2026-05-05 21:09 -24.56075 -39.24888 39174 ft 478 kts 118°
2026-05-05 21:10 -24.58832 -39.18240 39174 ft 479 kts 118°
2026-05-05 21:10 -24.61589 -39.11578 39176 ft 479 kts 118°
2026-05-05 21:11 -24.64340 -39.04925 39174 ft 477 kts 118°
2026-05-05 21:11 -24.67061 -38.98331 39174 ft 477 kts 118°
2026-05-05 21:12 -24.69800 -38.91691 39174 ft 477 kts 118°
2026-05-05 21:12 -24.72535 -38.85051 39175 ft 477 kts 118°
2026-05-05 21:13 -24.75265 -38.78407 39174 ft 477 kts 118°
2026-05-05 21:13 -24.77992 -38.71761 39174 ft 477 kts 118°
2026-05-05 21:14 -24.80719 -38.65108 39174 ft 477 kts 118°
2026-05-05 21:14 -24.83443 -38.58452 39174 ft 477 kts 118°
2026-05-05 21:15 -24.86163 -38.51797 39175 ft 477 kts 118°
2026-05-05 21:15 -24.88878 -38.45141 39174 ft 476 kts 118°
2026-05-05 21:16 -24.91591 -38.38479 39174 ft 477 kts 118°
2026-05-05 21:16 -24.94302 -38.31812 39174 ft 477 kts 118°
2026-05-05 21:17 -24.97012 -38.25139 39165 ft 477 kts 118°
2026-05-05 21:17 -24.99714 -38.18474 39165 ft 476 kts 118°
2026-05-05 21:18 -25.02412 -38.11808 39165 ft 476 kts 118°
2026-05-05 21:18 -25.05108 -38.05139 39165 ft 476 kts 118°
2026-05-05 21:19 -25.07801 -37.98467 39165 ft 476 kts 118°
2026-05-05 21:19 -25.10491 -37.91793 39166 ft 477 kts 117°
2026-05-05 21:20 -25.13181 -37.85105 39164 ft 477 kts 117°
2026-05-05 21:20 -25.15864 -37.78421 39164 ft 477 kts 117°
2026-05-05 21:21 -25.18549 -37.71731 39165 ft 477 kts 117°
2026-05-05 21:21 -25.21214 -37.65080 39165 ft 477 kts 117°
2026-05-05 21:22 -25.23893 -37.58377 39165 ft 477 kts 117°
2026-05-05 21:22 -25.26567 -37.51681 39164 ft 477 kts 117°
2026-05-05 21:23 -25.29238 -37.44975 39165 ft 477 kts 117°
2026-05-05 21:23 -25.31907 -37.38267 39165 ft 477 kts 117°
2026-05-05 21:24 -25.34575 -37.31552 39165 ft 477 kts 117°
2026-05-05 21:24 -25.37241 -37.24836 39165 ft 477 kts 117°
2026-05-05 21:25 -25.39903 -37.18113 39167 ft 478 kts 117°
2026-05-05 21:25 -25.42566 -37.11380 39182 ft 478 kts 117°
2026-05-05 21:26 -25.45223 -37.04649 39183 ft 477 kts 117°
2026-05-05 21:26 -25.47876 -36.97921 39182 ft 477 kts 117°
2026-05-05 21:27 -25.50528 -36.91183 39181 ft 478 kts 117°
2026-05-05 21:27 -25.53177 -36.84443 39183 ft 478 kts 116°
2026-05-05 21:28 -25.55823 -36.77693 39182 ft 478 kts 117°
2026-05-05 21:28 -25.58462 -36.70950 39183 ft 477 kts 116°
2026-05-05 21:29 -25.61084 -36.64248 39183 ft 477 kts 116°
2026-05-05 21:29 -25.63720 -36.57496 39183 ft 477 kts 116°
2026-05-05 21:30 -25.66352 -36.50742 39183 ft 477 kts 116°
2026-05-05 21:30 -25.68981 -36.43989 39181 ft 477 kts 116°
2026-05-05 21:31 -25.71606 -36.37230 39183 ft 477 kts 116°
2026-05-05 21:31 -25.74227 -36.30470 39182 ft 477 kts 116°
2026-05-05 21:32 -25.76848 -36.23706 39182 ft 477 kts 116°
2026-05-05 21:32 -25.79465 -36.16938 39183 ft 477 kts 116°
2026-05-05 21:33 -25.82078 -36.10172 39184 ft 477 kts 116°
2026-05-05 21:33 -25.84682 -36.03407 39182 ft 477 kts 116°
2026-05-05 21:34 -25.87285 -35.96636 39182 ft 477 kts 116°
2026-05-05 21:34 -25.89883 -35.89868 39175 ft 477 kts 116°
2026-05-05 21:35 -25.92483 -35.83090 39174 ft 477 kts 116°
2026-05-05 21:35 -25.95081 -35.76306 39175 ft 477 kts 116°
2026-05-05 21:36 -25.97676 -35.69515 39175 ft 477 kts 116°
2026-05-05 21:36 -26.00270 -35.62718 39174 ft 478 kts 116°
2026-05-05 21:37 -26.02858 -35.55919 39174 ft 477 kts 116°
2026-05-05 21:37 -26.05445 -35.49118 39175 ft 478 kts 116°
2026-05-05 21:38 -26.08030 -35.42310 39175 ft 478 kts 116°
2026-05-05 21:38 -26.10612 -35.35502 39174 ft 478 kts 116°
2026-05-05 21:39 -26.13174 -35.28726 39174 ft 479 kts 116°
2026-05-05 21:39 -26.15756 -35.21888 39175 ft 480 kts 116°
2026-05-05 21:40 -26.18339 -35.15039 39174 ft 480 kts 116°
2026-05-05 21:40 -26.20922 -35.08182 39174 ft 481 kts 116°
2026-05-05 21:41 -26.23502 -35.01311 39174 ft 481 kts 116°
2026-05-05 21:41 -26.26083 -34.94433 39175 ft 482 kts 116°
2026-05-05 21:42 -26.28664 -34.87541 39174 ft 482 kts 116°
2026-05-05 21:42 -26.31248 -34.80632 39174 ft 483 kts 116°
2026-05-05 21:43 -26.33830 -34.73712 39174 ft 484 kts 116°
2026-05-05 21:43 -26.36413 -34.66778 39174 ft 485 kts 116°
2026-05-05 21:44 -26.38999 -34.59829 39174 ft 485 kts 115°
2026-05-05 21:44 -26.41583 -34.52866 39174 ft 486 kts 115°
2026-05-05 21:45 -26.44162 -34.45898 39174 ft 486 kts 115°
2026-05-05 21:45 -26.46739 -34.38923 39174 ft 486 kts 115°
2026-05-05 21:46 -26.49324 -34.31938 39174 ft 487 kts 115°
2026-05-05 21:46 -26.51908 -34.24932 39174 ft 488 kts 115°
2026-05-05 21:47 -26.54487 -34.17924 39174 ft 488 kts 115°
2026-05-05 21:47 -26.57061 -34.10915 39175 ft 488 kts 115°
2026-05-05 21:48 -26.59636 -34.03895 39174 ft 489 kts 115°
2026-05-05 21:48 -26.62205 -33.96871 39173 ft 488 kts 115°
2026-05-05 21:49 -26.64776 -33.89835 39175 ft 490 kts 115°
2026-05-05 21:49 -26.67350 -33.82779 39173 ft 490 kts 115°
2026-05-05 21:50 -26.69904 -33.75767 39175 ft 490 kts 115°
2026-05-05 21:50 -26.72470 -33.68703 39175 ft 490 kts 115°
2026-05-05 21:51 -26.75030 -33.61644 39173 ft 489 kts 114°
2026-05-05 21:51 -26.77584 -33.54585 39166 ft 490 kts 114°
2026-05-05 21:52 -26.81415 -33.43981 39165 ft 490 kts 114°
2026-05-05 21:53 -26.83964 -33.36917 39164 ft 489 kts 114°
2026-05-05 21:53 -26.86078 -33.31039 39164 ft 489 kts 114°
2026-05-05 21:54 -26.88617 -33.23971 39165 ft 490 kts 114°
2026-05-05 21:54 -26.91158 -33.16890 39165 ft 490 kts 114°
2026-05-05 21:55 -26.93695 -33.09803 39165 ft 490 kts 114°
2026-05-05 21:55 -26.96230 -33.02707 39165 ft 491 kts 114°
2026-05-05 21:56 -26.98765 -32.95595 39165 ft 491 kts 114°
2026-05-05 21:56 -27.01298 -32.88477 39165 ft 491 kts 114°
2026-05-05 21:57 -27.03827 -32.81360 39165 ft 491 kts 113°
2026-05-05 21:57 -27.06354 -32.74234 39165 ft 492 kts 113°
2026-05-05 21:58 -27.08879 -32.67101 39163 ft 492 kts 113°
2026-05-05 21:58 -27.11403 -32.59955 39166 ft 493 kts 113°
2026-05-05 21:59 -27.13927 -32.52798 39165 ft 493 kts 113°
2026-05-05 21:59 -27.16449 -32.45639 39165 ft 493 kts 113°
2026-05-05 22:00 -27.18967 -32.38469 39170 ft 494 kts 113°
2026-05-05 22:00 -27.21480 -32.31292 39174 ft 493 kts 113°
2026-05-05 22:01 -27.23992 -32.24112 39175 ft 494 kts 113°
2026-05-05 22:01 -27.26505 -32.16922 39174 ft 494 kts 112°
2026-05-05 22:02 -27.29012 -32.09731 39174 ft 494 kts 112°
2026-05-05 22:02 -27.31500 -32.02580 39168 ft 495 kts 112°
2026-05-05 22:03 -27.34021 -31.95325 39164 ft 495 kts 112°
2026-05-05 22:03 -27.36512 -31.88134 39165 ft 497 kts 112°
2026-05-05 22:04 -27.39022 -31.80883 39165 ft 498 kts 112°
2026-05-05 22:04 -27.41530 -31.73619 39164 ft 498 kts 112°
2026-05-05 22:05 -27.44034 -31.66355 39166 ft 498 kts 112°
2026-05-05 22:05 -27.46533 -31.59088 39165 ft 498 kts 112°
2026-05-05 22:06 -27.49028 -31.51813 39164 ft 498 kts 112°
2026-05-05 22:06 -27.51523 -31.44533 39165 ft 499 kts 112°
2026-05-05 22:07 -27.54019 -31.37236 39165 ft 499 kts 112°
2026-05-05 22:07 -27.56511 -31.29928 39165 ft 500 kts 111°
2026-05-05 22:08 -27.59000 -31.22614 39165 ft 500 kts 111°
2026-05-05 22:08 -27.61489 -31.15286 39165 ft 501 kts 111°
2026-05-05 22:09 -27.63980 -31.07944 39165 ft 502 kts 111°
2026-05-05 22:09 -27.66471 -31.00587 39165 ft 502 kts 111°
2026-05-05 22:10 -27.68961 -30.93218 39165 ft 503 kts 111°
2026-05-05 22:10 -27.71437 -30.85880 39166 ft 504 kts 111°
2026-05-05 22:11 -27.73943 -30.78429 39164 ft 505 kts 111°
2026-05-05 22:11 -27.76416 -30.71059 39165 ft 505 kts 111°
2026-05-05 22:12 -27.78906 -30.63626 39165 ft 506 kts 111°
2026-05-05 22:12 -27.81395 -30.56181 39165 ft 507 kts 111°
2026-05-05 22:13 -27.83883 -30.48725 39165 ft 508 kts 110°
2026-05-05 22:13 -27.86372 -30.41255 39165 ft 508 kts 110°
2026-05-05 22:14 -27.88859 -30.33771 39165 ft 509 kts 110°
2026-05-05 22:14 -27.91342 -30.26283 39164 ft 509 kts 110°
2026-05-05 22:15 -27.93824 -30.18781 39165 ft 510 kts 110°
2026-05-05 22:15 -27.96303 -30.11274 39165 ft 510 kts 110°
2026-05-05 22:16 -27.98777 -30.03755 39165 ft 510 kts 110°
2026-05-05 22:16 -28.01282 -29.96254 39164 ft 510 kts 111°
2026-05-05 22:17 -28.03873 -29.88781 39165 ft 510 kts 111°
2026-05-05 22:17 -28.06470 -29.81314 39165 ft 510 kts 111°
2026-05-05 22:18 -28.09055 -29.73838 39162 ft 510 kts 111°
2026-05-05 22:18 -28.11630 -29.66356 39153 ft 510 kts 111°
2026-05-05 22:19 -28.14197 -29.58875 39158 ft 510 kts 111°
2026-05-05 22:19 -28.16766 -29.51378 39155 ft 510 kts 111°
2026-05-05 22:20 -28.19329 -29.43873 39160 ft 510 kts 111°
2026-05-05 22:20 -28.21886 -29.36363 39152 ft 511 kts 111°
2026-05-05 22:21 -28.24447 -29.28840 39158 ft 511 kts 111°
2026-05-05 22:21 -28.27007 -29.21310 39152 ft 512 kts 111°
2026-05-05 22:22 -28.29562 -29.13775 39157 ft 512 kts 111°
2026-05-05 22:22 -28.32113 -29.06225 39154 ft 512 kts 111°
2026-05-05 22:23 -28.34666 -28.98662 39158 ft 514 kts 111°
2026-05-05 22:23 -28.37217 -28.91089 39153 ft 514 kts 111°
2026-05-05 22:24 -28.39748 -28.83560 39157 ft 514 kts 111°
2026-05-05 22:24 -28.42294 -28.75969 39154 ft 515 kts 111°
2026-05-05 22:25 -28.44840 -28.68366 39157 ft 515 kts 111°
2026-05-05 22:25 -28.47384 -28.60749 39157 ft 516 kts 111°
2026-05-05 22:26 -28.49923 -28.53126 39155 ft 515 kts 110°
2026-05-05 22:26 -28.52461 -28.45494 39155 ft 516 kts 110°
2026-05-05 22:27 -28.54997 -28.37852 39154 ft 516 kts 110°
2026-05-05 22:27 -28.57528 -28.30205 39155 ft 517 kts 110°
2026-05-05 22:28 -28.60044 -28.22579 39154 ft 513 kts 110°
2026-05-05 22:28 -28.62546 -28.14990 39155 ft 512 kts 110°
2026-05-05 22:29 -28.65043 -28.07400 39157 ft 512 kts 110°
2026-05-05 22:29 -28.67535 -27.99804 39156 ft 513 kts 110°
2026-05-05 22:30 -28.70031 -27.92189 39158 ft 514 kts 110°
2026-05-05 22:30 -28.72528 -27.84547 39157 ft 515 kts 110°
2026-05-05 22:31 -28.75023 -27.76895 39153 ft 516 kts 110°
2026-05-05 22:31 -28.77517 -27.69232 39158 ft 515 kts 110°
2026-05-05 22:32 -28.80005 -27.61570 39152 ft 516 kts 110°
2026-05-05 22:32 -28.82488 -27.53902 39156 ft 516 kts 110°
2026-05-05 22:33 -28.84968 -27.46223 39153 ft 516 kts 110°
2026-05-05 22:33 -28.87446 -27.38533 39154 ft 517 kts 110°
2026-05-05 22:34 -28.89920 -27.30843 39155 ft 516 kts 110°
2026-05-05 22:34 -28.92376 -27.23195 39156 ft 517 kts 110°
2026-05-05 22:35 -28.94844 -27.15484 39146 ft 517 kts 110°
2026-05-05 22:35 -28.97311 -27.07764 39144 ft 518 kts 110°
2026-05-05 22:36 -28.99779 -27.00028 39146 ft 518 kts 110°
2026-05-05 22:36 -29.02241 -26.92289 39148 ft 518 kts 109°
2026-05-05 22:37 -29.04703 -26.84536 39147 ft 519 kts 109°
2026-05-05 22:37 -29.07160 -26.76779 39145 ft 519 kts 109°
2026-05-05 22:38 -29.09613 -26.69010 39147 ft 520 kts 109°
2026-05-05 22:38 -29.12065 -26.61224 39147 ft 521 kts 109°
2026-05-05 22:39 -29.14519 -26.53421 39148 ft 521 kts 109°
2026-05-05 22:39 -29.16969 -26.45618 39150 ft 521 kts 109°
2026-05-05 22:40 -29.19001 -26.39125 39143 ft 522 kts 109°
2026-05-05 22:40 -29.21840 -26.30038 39147 ft 522 kts 109°
2026-05-05 22:41 -29.24279 -26.22211 39149 ft 522 kts 109°
2026-05-05 22:41 -29.26320 -26.15646 39145 ft 522 kts 109°
2026-05-05 22:42 -29.29147 -26.06523 39143 ft 523 kts 109°
2026-05-05 22:42 -29.31184 -25.99936 39149 ft 523 kts 109°
2026-05-05 22:43 -29.33617 -25.92062 39143 ft 525 kts 109°
2026-05-05 22:43 -29.36053 -25.84157 39143 ft 526 kts 109°
2026-05-05 22:44 -29.38485 -25.76246 39146 ft 526 kts 109°
2026-05-05 22:44 -29.40896 -25.68379 39148 ft 526 kts 109°
2026-05-05 22:45 -29.43318 -25.60458 39147 ft 526 kts 109°
2026-05-05 22:45 -29.45735 -25.52530 39146 ft 527 kts 109°
2026-05-05 22:46 -29.48151 -25.44598 39147 ft 527 kts 109°
2026-05-05 22:46 -29.50561 -25.36659 39146 ft 527 kts 109°
2026-05-05 22:47 -29.52968 -25.28710 39145 ft 527 kts 109°
2026-05-05 22:47 -29.55373 -25.20756 39144 ft 527 kts 109°
2026-05-05 22:48 -29.57774 -25.12792 39144 ft 527 kts 108°
2026-05-05 22:48 -29.60165 -25.04826 39147 ft 528 kts 108°
2026-05-05 22:49 -29.62560 -24.96840 39150 ft 529 kts 108°
2026-05-05 22:49 -29.64951 -24.88852 39148 ft 529 kts 108°
2026-05-05 22:50 -29.67339 -24.80853 39146 ft 529 kts 108°
2026-05-05 22:50 -29.69724 -24.72841 39146 ft 530 kts 108°
2026-05-05 22:51 -29.72105 -24.64818 39145 ft 530 kts 108°
2026-05-05 22:51 -29.74483 -24.56790 39150 ft 530 kts 109°
2026-05-05 22:52 -29.76858 -24.48757 39148 ft 531 kts 108°
2026-05-05 22:52 -29.79230 -24.40709 39145 ft 531 kts 108°
2026-05-05 22:53 -29.81600 -24.32650 39147 ft 531 kts 108°
2026-05-05 22:53 -29.83964 -24.24583 39147 ft 532 kts 108°
2026-05-05 22:54 -29.86325 -24.16507 39143 ft 532 kts 108°
2026-05-05 22:54 -29.88681 -24.08427 39135 ft 532 kts 108°
2026-05-05 22:55 -29.91033 -24.00349 39140 ft 532 kts 108°
2026-05-05 22:55 -29.93382 -23.92260 39135 ft 532 kts 108°
2026-05-05 22:56 -29.95708 -23.84220 39142 ft 532 kts 108°
2026-05-05 22:56 -29.98047 -23.76119 39134 ft 532 kts 108°
2026-05-05 22:57 -30.00380 -23.68015 39137 ft 532 kts 108°
2026-05-05 22:57 -30.02709 -23.59911 39140 ft 532 kts 108°
2026-05-05 22:58 -30.05032 -23.51805 39135 ft 531 kts 108°
2026-05-05 22:58 -30.07345 -23.43706 39128 ft 531 kts 108°
2026-05-05 22:59 -30.09652 -23.35609 39128 ft 531 kts 108°
2026-05-05 22:59 -30.11956 -23.27508 39128 ft 531 kts 108°
2026-05-05 23:00 -30.15396 -23.15361 39128 ft 530 kts 108°
2026-05-05 23:00 -30.17682 -23.07269 39129 ft 530 kts 108°
2026-05-05 23:01 -30.19962 -22.99171 39128 ft 530 kts 108°
2026-05-05 23:01 -30.22236 -22.91070 39128 ft 530 kts 108°
2026-05-05 23:02 -30.24507 -22.82964 39128 ft 530 kts 107°
2026-05-05 23:02 -30.26777 -22.74855 39128 ft 530 kts 107°
2026-05-05 23:03 -30.29022 -22.66796 39128 ft 530 kts 107°
2026-05-05 23:03 -30.31277 -22.58678 39128 ft 530 kts 107°
2026-05-05 23:04 -30.33528 -22.50557 39128 ft 530 kts 107°
2026-05-05 23:04 -30.35772 -22.42432 39128 ft 530 kts 107°
2026-05-05 23:05 -30.38013 -22.34299 39128 ft 530 kts 107°
2026-05-05 23:05 -30.40247 -22.26172 39128 ft 530 kts 107°
2026-05-05 23:06 -30.42477 -22.18039 39127 ft 530 kts 107°
2026-05-05 23:06 -30.44702 -22.09903 39128 ft 530 kts 107°
2026-05-05 23:07 -30.46923 -22.01765 39128 ft 530 kts 107°
2026-05-05 23:07 -30.49140 -21.93620 39128 ft 530 kts 107°
2026-05-05 23:08 -30.51355 -21.85460 39128 ft 531 kts 107°
2026-05-05 23:08 -30.53564 -21.77287 39128 ft 531 kts 107°
2026-05-05 23:09 -30.55767 -21.69114 39128 ft 531 kts 107°
2026-05-05 23:09 -30.57968 -21.60937 39128 ft 531 kts 107°
2026-05-05 23:10 -30.60162 -21.52759 39128 ft 531 kts 107°
2026-05-05 23:10 -30.62351 -21.44576 39128 ft 531 kts 107°
2026-05-05 23:11 -30.64522 -21.36434 39128 ft 532 kts 107°
2026-05-05 23:11 -30.66705 -21.28228 39129 ft 532 kts 107°
2026-05-05 23:12 -30.68882 -21.20018 39128 ft 532 kts 107°
2026-05-05 23:12 -30.71056 -21.11798 39128 ft 532 kts 107°
2026-05-05 23:13 -30.73224 -21.03578 39128 ft 532 kts 107°
2026-05-05 23:13 -30.75389 -20.95346 39128 ft 533 kts 107°
2026-05-05 23:14 -30.77550 -20.87107 39128 ft 533 kts 107°
2026-05-05 23:14 -30.79707 -20.78857 39128 ft 533 kts 106°
2026-05-05 23:15 -30.81859 -20.70605 39128 ft 533 kts 106°
2026-05-05 23:15 -30.84006 -20.62344 39128 ft 534 kts 106°
2026-05-05 23:16 -30.86151 -20.54068 39128 ft 534 kts 106°
2026-05-05 23:16 -30.88293 -20.45788 39128 ft 534 kts 106°
2026-05-05 23:17 -30.90429 -20.37507 39128 ft 534 kts 106°
2026-05-05 23:17 -30.92557 -20.29218 39128 ft 534 kts 106°
2026-05-05 23:18 -30.94682 -20.20923 39128 ft 534 kts 106°
2026-05-05 23:18 -30.96802 -20.12630 39128 ft 534 kts 106°
2026-05-05 23:19 -30.98919 -20.04322 39128 ft 535 kts 106°
2026-05-05 23:19 -31.01009 -19.96013 39132 ft 535 kts 105°
2026-05-05 23:20 -31.03039 -19.87665 39128 ft 536 kts 105°
2026-05-05 23:20 -31.05055 -19.79298 39128 ft 536 kts 105°
2026-05-05 23:21 -31.07057 -19.70992 39128 ft 535 kts 105°
2026-05-05 23:21 -31.09071 -19.62633 39128 ft 535 kts 105°
2026-05-05 23:22 -31.11083 -19.54267 39128 ft 536 kts 105°
2026-05-05 23:22 -31.13091 -19.45896 39128 ft 535 kts 105°
2026-05-05 23:23 -31.15089 -19.37526 39128 ft 535 kts 105°
2026-05-05 23:23 -31.17082 -19.29148 39128 ft 535 kts 105°
2026-05-05 23:24 -31.19070 -19.20771 39128 ft 535 kts 105°
2026-05-05 23:24 -31.21053 -19.12385 39128 ft 536 kts 105°
2026-05-05 23:25 -31.23031 -19.03999 39127 ft 535 kts 105°
2026-05-05 23:25 -31.25004 -18.95602 39128 ft 536 kts 105°
2026-05-05 23:26 -31.26975 -18.87194 39123 ft 536 kts 105°
2026-05-05 23:26 -31.28941 -18.78784 39119 ft 536 kts 104°
2026-05-05 23:27 -31.30900 -18.70369 39119 ft 536 kts 104°
2026-05-05 23:27 -31.32852 -18.61952 39118 ft 536 kts 104°
2026-05-05 23:28 -31.34471 -18.54952 39119 ft 536 kts 104°
2026-05-05 23:28 -31.36417 -18.46530 39119 ft 536 kts 104°
2026-05-05 23:29 -31.38355 -18.38103 39119 ft 536 kts 104°
2026-05-05 23:29 -31.40286 -18.29677 39119 ft 536 kts 104°
2026-05-05 23:30 -31.42211 -18.21248 39119 ft 536 kts 104°
2026-05-05 23:30 -31.44131 -18.12810 39119 ft 536 kts 104°
2026-05-05 23:31 -31.46046 -18.04371 39119 ft 536 kts 104°
2026-05-05 23:31 -31.47958 -17.95929 39119 ft 536 kts 104°
2026-05-05 23:32 -31.49863 -17.87486 39119 ft 536 kts 104°
2026-05-05 23:32 -31.51762 -17.79035 39119 ft 536 kts 104°
2026-05-05 23:33 -31.53652 -17.70587 39119 ft 536 kts 104°
2026-05-05 23:33 -31.55527 -17.62189 39118 ft 536 kts 104°
2026-05-05 23:34 -31.57412 -17.53722 39119 ft 537 kts 104°
2026-05-05 23:34 -31.59291 -17.45243 39119 ft 537 kts 104°
2026-05-05 23:35 -31.61165 -17.36761 39119 ft 537 kts 104°
2026-05-05 23:35 -31.63034 -17.28278 39118 ft 537 kts 104°
2026-05-05 23:36 -31.64900 -17.19785 39119 ft 537 kts 104°
2026-05-05 23:36 -31.66757 -17.11289 39119 ft 537 kts 104°
2026-05-05 23:37 -31.68609 -17.02793 39119 ft 537 kts 104°
2026-05-05 23:37 -31.70456 -16.94291 39119 ft 537 kts 104°
2026-05-05 23:38 -31.72297 -16.85792 39119 ft 537 kts 104°
2026-05-05 23:38 -31.74129 -16.77285 39119 ft 537 kts 104°
2026-05-05 23:39 -31.75960 -16.68775 39119 ft 537 kts 104°
2026-05-05 23:39 -31.77787 -16.60245 39119 ft 538 kts 104°
2026-05-05 23:40 -31.79598 -16.51770 39118 ft 538 kts 104°
2026-05-05 23:40 -31.81416 -16.43234 39119 ft 538 kts 104°
2026-05-05 23:41 -31.83227 -16.34695 39119 ft 538 kts 104°
2026-05-05 23:41 -31.85030 -16.26152 39119 ft 538 kts 103°
2026-05-05 23:42 -31.86829 -16.17605 39119 ft 538 kts 103°
2026-05-05 23:42 -31.88622 -16.09053 39119 ft 538 kts 103°
2026-05-05 23:43 -31.90408 -16.00500 39119 ft 538 kts 103°
2026-05-05 23:43 -31.92190 -15.91945 39119 ft 538 kts 103°
2026-05-05 23:44 -31.93966 -15.83389 39119 ft 538 kts 103°
2026-05-05 23:44 -31.95736 -15.74832 39119 ft 538 kts 103°
2026-05-05 23:45 -31.97501 -15.66269 39119 ft 538 kts 103°
2026-05-05 23:45 -31.99259 -15.57700 39125 ft 538 kts 103°
2026-05-05 23:46 -32.01011 -15.49130 39128 ft 538 kts 103°
2026-05-05 23:46 -32.02755 -15.40564 39128 ft 537 kts 103°
2026-05-05 23:47 -32.04492 -15.32006 39128 ft 537 kts 103°
2026-05-05 23:47 -32.06225 -15.23441 39128 ft 537 kts 103°
2026-05-05 23:48 -32.07951 -15.14873 39128 ft 537 kts 103°
2026-05-05 23:48 -32.09673 -15.06297 39128 ft 537 kts 103°
2026-05-05 23:49 -32.11376 -14.97774 39128 ft 538 kts 103°
2026-05-05 23:49 -32.13090 -14.89183 39128 ft 538 kts 103°
2026-05-05 23:50 -32.14797 -14.80581 39128 ft 539 kts 103°
2026-05-05 23:50 -32.16498 -14.71976 39128 ft 539 kts 103°
2026-05-05 23:51 -32.18195 -14.63360 39128 ft 539 kts 103°
2026-05-05 23:51 -32.19888 -14.54730 39128 ft 540 kts 102°
2026-05-05 23:52 -32.21577 -14.46097 39128 ft 540 kts 102°
2026-05-05 23:52 -32.23262 -14.37447 39127 ft 540 kts 102°
2026-05-05 23:53 -32.24941 -14.28790 39119 ft 541 kts 102°
2026-05-05 23:53 -32.26617 -14.20124 39119 ft 541 kts 102°
2026-05-05 23:54 -32.28285 -14.11454 39119 ft 541 kts 102°
2026-05-05 23:54 -32.29949 -14.02775 39118 ft 541 kts 102°
2026-05-05 23:55 -32.31604 -13.94102 39102 ft 541 kts 102°
2026-05-05 23:55 -32.33257 -13.85416 39100 ft 542 kts 102°
2026-05-05 23:56 -32.34905 -13.76720 39101 ft 542 kts 102°
2026-05-05 23:56 -32.36535 -13.68081 39099 ft 540 kts 102°
2026-05-05 23:57 -32.38160 -13.59433 39109 ft 537 kts 102°
2026-05-05 23:57 -32.39772 -13.50818 39110 ft 536 kts 102°
2026-05-05 23:58 -32.41382 -13.42201 39110 ft 536 kts 102°
2026-05-05 23:58 -32.42981 -13.33579 39109 ft 536 kts 102°
2026-05-05 23:59 -32.44576 -13.24955 39110 ft 537 kts 102°
2026-05-05 23:59 -32.46167 -13.16325 39110 ft 536 kts 102°
2026-05-06 00:00 -32.47750 -13.07700 39110 ft 536 kts 102°
2026-05-06 00:00 -32.49327 -12.99070 39110 ft 536 kts 102°
2026-05-06 00:01 -32.50899 -12.90427 39110 ft 537 kts 102°
2026-05-06 00:01 -32.52465 -12.81775 39109 ft 537 kts 102°
2026-05-06 00:02 -32.54029 -12.73125 39110 ft 537 kts 102°
2026-05-06 00:02 -32.55586 -12.64465 39110 ft 537 kts 102°
2026-05-06 00:03 -32.57133 -12.55807 39110 ft 537 kts 102°
2026-05-06 00:03 -32.58678 -12.47144 39109 ft 538 kts 102°
2026-05-06 00:04 -32.60218 -12.38465 39110 ft 538 kts 102°
2026-05-06 00:04 -32.61752 -12.29785 39109 ft 537 kts 102°
2026-05-06 00:05 -32.64043 -12.16764 39110 ft 538 kts 102°
2026-05-06 00:06 -32.65563 -12.08075 39110 ft 538 kts 102°
2026-05-06 00:06 -32.67075 -11.99384 39109 ft 537 kts 101°
2026-05-06 00:07 -32.68582 -11.90689 39110 ft 538 kts 101°
2026-05-06 00:07 -32.70086 -11.81975 39110 ft 539 kts 101°
2026-05-06 00:08 -32.71584 -11.73262 39110 ft 539 kts 101°
2026-05-06 00:08 -32.73076 -11.64541 39110 ft 539 kts 101°
2026-05-06 00:09 -32.74560 -11.55826 39110 ft 538 kts 101°
2026-05-06 00:09 -32.76040 -11.47102 39110 ft 539 kts 101°
2026-05-06 00:10 -32.77515 -11.38372 39109 ft 539 kts 101°
2026-05-06 00:10 -32.78984 -11.29643 39109 ft 539 kts 101°
2026-05-06 00:11 -32.80445 -11.20915 39109 ft 537 kts 101°
2026-05-06 00:11 -32.81882 -11.12289 39110 ft 535 kts 101°
2026-05-06 00:12 -32.83323 -11.03608 39110 ft 535 kts 101°
2026-05-06 00:12 -32.84758 -10.94928 39110 ft 535 kts 101°
2026-05-06 00:13 -32.86186 -10.86240 39110 ft 535 kts 101°
2026-05-06 00:13 -32.87607 -10.77557 39110 ft 535 kts 101°
2026-05-06 00:14 -32.89023 -10.68868 39110 ft 535 kts 101°
2026-05-06 00:14 -32.90433 -10.60184 39110 ft 535 kts 101°
2026-05-06 00:15 -32.91835 -10.51489 39110 ft 535 kts 101°
2026-05-06 00:15 -32.93232 -10.42793 39110 ft 535 kts 101°
2026-05-06 00:16 -32.94623 -10.34098 39110 ft 535 kts 101°
2026-05-06 00:16 -32.96009 -10.25391 39110 ft 536 kts 101°
2026-05-06 00:17 -32.97158 -10.18146 39110 ft 536 kts 101°
2026-05-06 00:17 -32.98532 -10.09429 39110 ft 536 kts 100°
2026-05-06 00:18 -32.99903 -10.00705 39110 ft 536 kts 100°
2026-05-06 00:18 -33.01185 -9.91958 39110 ft 536 kts 99°
2026-05-06 00:19 -33.02400 -9.83203 39109 ft 535 kts 99°
2026-05-06 00:19 -33.03609 -9.74447 39110 ft 536 kts 99°
2026-05-06 00:20 -33.04822 -9.65693 39109 ft 535 kts 99°
2026-05-06 00:20 -33.06032 -9.56949 39110 ft 535 kts 99°
2026-05-06 00:21 -33.07236 -9.48206 39109 ft 534 kts 99°
2026-05-06 00:21 -33.08436 -9.39457 39110 ft 535 kts 99°
2026-05-06 00:22 -33.09629 -9.30707 39110 ft 535 kts 99°
2026-05-06 00:22 -33.10813 -9.21952 39109 ft 535 kts 99°
2026-05-06 00:23 -33.11983 -9.13256 39110 ft 535 kts 99°
2026-05-06 00:23 -33.13156 -9.04495 39110 ft 535 kts 99°
2026-05-06 00:24 -33.14324 -8.95736 39110 ft 535 kts 99°
2026-05-06 00:24 -33.15487 -8.86974 39110 ft 535 kts 99°
2026-05-06 00:25 -33.16641 -8.78206 39110 ft 535 kts 99°
2026-05-06 00:25 -33.17791 -8.69438 39109 ft 535 kts 99°
2026-05-06 00:26 -33.18935 -8.60670 39109 ft 535 kts 98°
2026-05-06 00:26 -33.20073 -8.51895 39110 ft 535 kts 99°
2026-05-06 00:27 -33.21204 -8.43114 39109 ft 534 kts 99°
2026-05-06 00:27 -33.22328 -8.34340 39110 ft 535 kts 98°
2026-05-06 00:28 -33.23447 -8.25559 39119 ft 535 kts 98°
2026-05-06 00:28 -33.24558 -8.16775 39119 ft 535 kts 98°
2026-05-06 00:29 -33.25665 -8.07992 39119 ft 535 kts 98°
2026-05-06 00:29 -33.26768 -7.99204 39119 ft 535 kts 98°
2026-05-06 00:30 -33.27862 -7.90411 39119 ft 535 kts 98°
2026-05-06 00:30 -33.28949 -7.81623 39119 ft 535 kts 98°
2026-05-06 00:31 -33.30027 -7.72831 39119 ft 535 kts 98°
2026-05-06 00:31 -33.31102 -7.64036 39119 ft 535 kts 98°
2026-05-06 00:32 -33.32165 -7.55292 39119 ft 535 kts 98°
2026-05-06 00:32 -33.33228 -7.46490 39119 ft 535 kts 98°
2026-05-06 00:33 -33.34285 -7.37685 39119 ft 535 kts 98°
2026-05-06 00:33 -33.35335 -7.28882 39119 ft 535 kts 98°
2026-05-06 00:34 -33.36380 -7.20073 39119 ft 535 kts 98°
2026-05-06 00:34 -33.37421 -7.11246 39119 ft 536 kts 98°
2026-05-06 00:35 -33.38453 -7.02420 39118 ft 536 kts 98°
2026-05-06 00:35 -33.39478 -6.93598 39119 ft 536 kts 98°
2026-05-06 00:36 -33.40499 -6.84763 39119 ft 535 kts 98°
2026-05-06 00:36 -33.41514 -6.75935 39119 ft 535 kts 98°
2026-05-06 00:37 -33.42522 -6.67105 39119 ft 536 kts 98°
2026-05-06 00:37 -33.43525 -6.58255 39119 ft 537 kts 98°
2026-05-06 00:38 -33.44524 -6.49399 39119 ft 537 kts 98°
2026-05-06 00:38 -33.45517 -6.40544 39119 ft 537 kts 98°
2026-05-06 00:39 -33.46501 -6.31682 39119 ft 537 kts 98°
2026-05-06 00:39 -33.47478 -6.22821 39119 ft 537 kts 98°
2026-05-06 00:40 -33.48450 -6.13958 39119 ft 537 kts 97°
2026-05-06 00:40 -33.49410 -6.05152 39119 ft 537 kts 97°
2026-05-06 00:41 -33.50372 -5.96269 39119 ft 538 kts 98°
2026-05-06 00:41 -33.51326 -5.87386 39119 ft 538 kts 98°
2026-05-06 00:42 -33.52276 -5.78498 39119 ft 538 kts 98°
2026-05-06 00:42 -33.53219 -5.69610 39119 ft 537 kts 97°
2026-05-06 00:43 -33.54153 -5.60733 39119 ft 537 kts 97°
2026-05-06 00:43 -33.55081 -5.51853 39119 ft 537 kts 97°
2026-05-06 00:44 -33.56003 -5.42972 39119 ft 537 kts 97°
2026-05-06 00:44 -33.56919 -5.34090 39119 ft 537 kts 97°
2026-05-06 00:45 -33.57827 -5.25199 39119 ft 537 kts 97°
2026-05-06 00:45 -33.58731 -5.16303 39119 ft 537 kts 97°
2026-05-06 00:46 -33.59628 -5.07413 39119 ft 537 kts 97°
2026-05-06 00:46 -33.60518 -4.98533 39119 ft 536 kts 97°
2026-05-06 00:47 -33.61401 -4.89653 39119 ft 536 kts 97°
2026-05-06 00:47 -33.62278 -4.80771 39118 ft 536 kts 97°
2026-05-06 00:48 -33.63147 -4.71885 39119 ft 536 kts 97°
2026-05-06 00:48 -33.64005 -4.63057 39119 ft 536 kts 97°
2026-05-06 00:49 -33.64861 -4.54171 39119 ft 536 kts 97°
2026-05-06 00:49 -33.65713 -4.45277 39119 ft 536 kts 97°
2026-05-06 00:50 -33.66559 -4.36381 39119 ft 537 kts 97°
2026-05-06 00:50 -33.67398 -4.27477 39119 ft 537 kts 97°
2026-05-06 00:51 -33.68231 -4.18576 39118 ft 537 kts 97°
2026-05-06 00:51 -33.69057 -4.09675 39119 ft 537 kts 97°
2026-05-06 00:52 -33.69877 -4.00768 39119 ft 536 kts 97°
2026-05-06 00:52 -33.70690 -3.91864 39119 ft 537 kts 96°
2026-05-06 00:53 -33.71497 -3.82953 39119 ft 537 kts 97°
2026-05-06 00:53 -33.72299 -3.74043 39118 ft 536 kts 96°
2026-05-06 00:54 -33.73092 -3.65139 39119 ft 536 kts 96°
2026-05-06 00:54 -33.73879 -3.56221 39119 ft 537 kts 96°
2026-05-06 00:55 -33.74660 -3.47306 39119 ft 537 kts 96°
2026-05-06 00:55 -33.75434 -3.38393 39125 ft 536 kts 96°
2026-05-06 00:56 -33.76203 -3.29478 39127 ft 536 kts 96°
2026-05-06 00:56 -33.76966 -3.20559 39128 ft 536 kts 96°
2026-05-06 00:57 -33.77722 -3.11647 39128 ft 536 kts 96°
2026-05-06 00:57 -33.78471 -3.02732 39128 ft 536 kts 96°
2026-05-06 00:58 -33.79215 -2.93818 39128 ft 536 kts 96°
2026-05-06 00:58 -33.79949 -2.84903 39128 ft 536 kts 96°
2026-05-06 00:59 -33.80678 -2.75984 39128 ft 536 kts 96°
2026-05-06 00:59 -33.81402 -2.67045 39131 ft 537 kts 96°
2026-05-06 01:00 -33.82121 -2.58110 39129 ft 536 kts 96°
2026-05-06 01:00 -33.82836 -2.49173 39129 ft 537 kts 96°
2026-05-06 01:01 -33.83535 -2.40225 39128 ft 537 kts 96°
2026-05-06 01:01 -33.84227 -2.31339 39128 ft 537 kts 96°
2026-05-06 01:02 -33.84925 -2.22329 39128 ft 537 kts 96°
2026-05-06 01:02 -33.85608 -2.13439 39128 ft 537 kts 96°
2026-05-06 01:03 -33.86287 -2.04493 39128 ft 537 kts 96°
2026-05-06 01:03 -33.86963 -1.95532 39128 ft 537 kts 96°
2026-05-06 01:04 -33.87628 -1.86578 39128 ft 537 kts 96°
2026-05-06 01:04 -33.88288 -1.77625 39127 ft 537 kts 96°
2026-05-06 01:05 -33.88833 -1.70171 39129 ft 538 kts 96°
2026-05-06 01:05 -33.89483 -1.61152 39127 ft 537 kts 96°
2026-05-06 01:06 -33.90121 -1.52241 39128 ft 538 kts 96°
2026-05-06 01:06 -33.90757 -1.43282 39128 ft 537 kts 96°
2026-05-06 01:07 -33.91387 -1.34320 39128 ft 537 kts 96°
2026-05-06 01:07 -33.92004 -1.25356 39128 ft 538 kts 96°
2026-05-06 01:08 -33.92619 -1.16388 39128 ft 537 kts 96°
2026-05-06 01:08 -33.93231 -1.07420 39128 ft 537 kts 95°
2026-05-06 01:09 -33.93836 -0.98449 39128 ft 537 kts 95°
2026-05-06 01:09 -33.94433 -0.89489 39128 ft 536 kts 95°
2026-05-06 01:10 -33.95022 -0.80538 39128 ft 536 kts 95°
2026-05-06 01:10 -33.95603 -0.71583 39120 ft 536 kts 95°
2026-05-06 01:11 -33.96177 -0.62623 39119 ft 536 kts 95°
2026-05-06 01:11 -33.96746 -0.53669 39119 ft 536 kts 95°
2026-05-06 01:12 -33.97309 -0.44713 39119 ft 536 kts 95°
2026-05-06 01:12 -33.97863 -0.35812 39119 ft 536 kts 95°
2026-05-06 01:13 -33.98411 -0.26860 39119 ft 535 kts 95°
2026-05-06 01:13 -33.98955 -0.17914 39119 ft 535 kts 95°
2026-05-06 01:14 -33.99755 -0.04491 39119 ft 536 kts 95°
2026-05-06 01:14 -34.00234 0.04468 39119 ft 536 kts 94°
2026-05-06 01:15 -34.00590 0.13441 39119 ft 536 kts 95°
2026-05-06 01:15 -34.00919 0.22409 39119 ft 536 kts 95°
2026-05-06 01:16 -34.01252 0.31378 39119 ft 536 kts 95°
2026-05-06 01:16 -34.01589 0.40347 39119 ft 535 kts 95°
2026-05-06 01:17 -34.01919 0.49307 39119 ft 535 kts 95°
2026-05-06 01:17 -34.02243 0.58257 39118 ft 534 kts 95°
2026-05-06 01:18 -34.02563 0.67192 39119 ft 533 kts 95°
2026-05-06 01:18 -34.02873 0.76117 39118 ft 533 kts 95°
2026-05-06 01:19 -34.03175 0.85036 39120 ft 532 kts 95°
2026-05-06 01:19 -34.03471 0.93941 39119 ft 531 kts 95°
2026-05-06 01:20 -34.03760 1.02831 39119 ft 531 kts 95°
2026-05-06 01:20 -34.04043 1.11719 39119 ft 530 kts 95°
2026-05-06 01:21 -34.04319 1.20592 39119 ft 530 kts 95°
2026-05-06 01:21 -34.04589 1.29464 39118 ft 529 kts 95°
2026-05-06 01:22 -34.04853 1.38322 39119 ft 528 kts 95°
2026-05-06 01:22 -34.05106 1.47113 39119 ft 528 kts 95°
2026-05-06 01:23 -34.05355 1.55958 39118 ft 528 kts 95°
2026-05-06 01:23 -34.05599 1.64800 39119 ft 528 kts 95°
2026-05-06 01:24 -34.05837 1.73647 39119 ft 528 kts 95°
2026-05-06 01:24 -34.06068 1.82487 39119 ft 527 kts 95°
2026-05-06 01:25 -34.06293 1.91328 39119 ft 527 kts 95°
2026-05-06 01:25 -34.06512 2.00170 39119 ft 527 kts 95°
2026-05-06 01:26 -34.06724 2.09003 39119 ft 527 kts 95°
2026-05-06 01:26 -34.06928 2.17845 39119 ft 528 kts 94°
2026-05-06 01:27 -34.07124 2.26695 39119 ft 528 kts 94°
2026-05-06 01:27 -34.07317 2.35548 39119 ft 528 kts 94°
2026-05-06 01:28 -34.07506 2.44397 39119 ft 528 kts 94°
2026-05-06 01:28 -34.07687 2.53239 39119 ft 527 kts 94°
2026-05-06 01:29 -34.07860 2.62073 39118 ft 526 kts 94°
2026-05-06 01:29 -34.08023 2.70832 39119 ft 526 kts 94°
2026-05-06 01:30 -34.08186 2.79656 39119 ft 526 kts 94°
2026-05-06 01:30 -34.08344 2.88474 39120 ft 527 kts 95°
2026-05-06 01:31 -34.08495 2.97305 39118 ft 523 kts 94°
2026-05-06 01:31 -34.08610 3.06077 39110 ft 521 kts 94°
2026-05-06 01:32 -34.08738 3.14867 39118 ft 524 kts 95°
2026-05-06 01:32 -34.08864 3.23687 39129 ft 529 kts 94°
2026-05-06 01:33 -34.09008 3.32533 39126 ft 526 kts 95°
2026-05-06 01:33 -34.09142 3.41305 39129 ft 522 kts 94°
2026-05-06 01:34 -34.09265 3.50074 39132 ft 521 kts 95°
2026-05-06 01:34 -34.09369 3.58827 39126 ft 522 kts 94°
2026-05-06 01:35 -34.09456 3.67576 39127 ft 521 kts 94°
2026-05-06 01:35 -34.09546 3.76309 39128 ft 526 kts 94°
2026-05-06 01:36 -34.09640 3.85106 39128 ft 524 kts 94°
2026-05-06 01:36 -34.09705 3.93895 39127 ft 524 kts 93°
2026-05-06 01:37 -34.09764 4.02712 39127 ft 525 kts 94°
2026-05-06 01:37 -34.09850 4.11503 39130 ft 525 kts 95°
2026-05-06 01:38 -34.09909 4.20284 39129 ft 524 kts 94°
2026-05-06 01:38 -34.09951 4.29082 39130 ft 524 kts 94°
2026-05-06 01:39 -34.10022 4.37881 39127 ft 523 kts 94°
2026-05-06 01:39 -34.10070 4.46671 39127 ft 524 kts 94°
2026-05-06 01:40 -34.10076 4.55462 39128 ft 524 kts 94°
2026-05-06 01:40 -34.10094 4.64238 39131 ft 523 kts 94°
2026-05-06 01:41 -34.10120 4.73001 39128 ft 522 kts 94°
2026-05-06 01:41 -34.10140 4.81749 39128 ft 521 kts 94°
2026-05-06 01:42 -34.10152 4.90425 39128 ft 520 kts 94°
2026-05-06 01:42 -34.10156 4.99150 39128 ft 520 kts 94°
2026-05-06 01:43 -34.10155 5.07867 39128 ft 519 kts 94°
2026-05-06 01:43 -34.10144 5.16566 39128 ft 518 kts 94°
2026-05-06 01:44 -34.10130 5.25257 39128 ft 518 kts 94°
2026-05-06 01:44 -34.10108 5.33934 39128 ft 517 kts 94°
2026-05-06 01:45 -34.10021 5.42610 39127 ft 517 kts 92°
2026-05-06 01:45 -34.09939 5.51279 39129 ft 517 kts 92°
2026-05-06 01:46 -34.09882 5.59948 39127 ft 516 kts 92°
2026-05-06 01:46 -34.09834 5.68606 39128 ft 516 kts 92°
2026-05-06 01:47 -34.09785 5.77255 39128 ft 516 kts 92°
2026-05-06 01:47 -34.09729 5.85910 39128 ft 516 kts 92°
2026-05-06 01:48 -34.09663 5.94558 39128 ft 516 kts 92°
2026-05-06 01:48 -34.09597 6.03207 39128 ft 516 kts 92°
2026-05-06 01:49 -34.09536 6.11863 39128 ft 516 kts 93°
2026-05-06 01:49 -34.09475 6.19923 39128 ft 516 kts 92°
2026-05-06 01:50 -34.09389 6.28574 39127 ft 515 kts 92°
2026-05-06 01:50 -34.09288 6.37223 39128 ft 515 kts 92°
2026-05-06 01:51 -34.09222 6.45861 39128 ft 515 kts 94°
2026-05-06 01:51 -34.09171 6.54495 39128 ft 515 kts 94°
2026-05-06 01:52 -34.09082 6.63129 39128 ft 514 kts 93°
2026-05-06 01:52 -34.08968 6.71755 39128 ft 514 kts 93°
2026-05-06 01:53 -34.08843 6.80367 39128 ft 513 kts 93°
2026-05-06 01:53 -34.08711 6.88978 39128 ft 513 kts 93°
2026-05-06 01:54 -34.08576 6.97582 39128 ft 513 kts 93°
2026-05-06 01:54 -34.08436 7.06181 39128 ft 513 kts 93°
2026-05-06 01:55 -34.08291 7.14777 39128 ft 512 kts 93°
2026-05-06 01:55 -34.08137 7.23371 39128 ft 512 kts 93°
2026-05-06 01:56 -34.07978 7.31965 39128 ft 513 kts 93°
2026-05-06 01:56 -34.07816 7.40567 39128 ft 513 kts 93°
2026-05-06 01:57 -34.07648 7.49112 39128 ft 513 kts 93°
2026-05-06 01:57 -34.07468 7.57762 39128 ft 513 kts 93°
2026-05-06 01:58 -34.07285 7.66305 39128 ft 513 kts 93°
2026-05-06 01:58 -34.07093 7.74906 39128 ft 513 kts 93°
2026-05-06 01:59 -34.06902 7.83509 39128 ft 513 kts 93°
2026-05-06 01:59 -34.06702 7.92116 39128 ft 514 kts 93°
2026-05-06 02:00 -34.06496 8.00723 39128 ft 514 kts 92°
2026-05-06 02:00 -34.06284 8.09332 39128 ft 514 kts 92°
2026-05-06 02:01 -34.06066 8.17943 39120 ft 514 kts 92°
2026-05-06 02:01 -34.05842 8.26558 39119 ft 514 kts 92°
2026-05-06 02:02 -34.05611 8.35169 39119 ft 514 kts 92°
2026-05-06 02:02 -34.05374 8.43778 39119 ft 513 kts 92°
2026-05-06 02:03 -34.05131 8.52375 39120 ft 513 kts 92°
2026-05-06 02:03 -34.04885 8.60952 39119 ft 511 kts 92°
2026-05-06 02:04 -34.04631 8.69516 39118 ft 511 kts 92°
2026-05-06 02:04 -34.04374 8.78006 39119 ft 510 kts 92°
2026-05-06 02:05 -34.04106 8.86595 39128 ft 509 kts 92°
2026-05-06 02:05 -34.03837 8.95107 39128 ft 508 kts 92°
2026-05-06 02:06 -34.03562 9.03602 39128 ft 506 kts 92°
2026-05-06 02:06 -34.03282 9.12080 39100 ft 506 kts 92°
2026-05-06 02:07 -34.02996 9.20548 39100 ft 506 kts 92°
2026-05-06 02:07 -34.02707 9.28959 39100 ft 505 kts 92°
2026-05-06 02:08 -34.02410 9.37420 39100 ft 505 kts 92°
2026-05-06 02:08 -34.02108 9.45875 39101 ft 505 kts 92°
2026-05-06 02:09 -34.01801 9.54325 39100 ft 504 kts 92°
2026-05-06 02:09 -34.01486 9.62765 39100 ft 504 kts 92°
2026-05-06 02:10 -34.01168 9.71205 39101 ft 504 kts 92°
2026-05-06 02:10 -34.00840 9.79638 39100 ft 503 kts 92°
2026-05-06 02:11 -34.00510 9.88069 39100 ft 503 kts 92°
2026-05-06 02:11 -34.00231 9.95072 39101 ft 504 kts 92°
2026-05-06 02:12 -34.00192 10.03473 39099 ft 500 kts 97°
2026-05-06 02:12 -34.00473 10.11835 39100 ft 499 kts 98°
2026-05-06 02:13 -34.00813 10.20191 39100 ft 499 kts 98°
2026-05-06 02:13 -34.01147 10.28544 39100 ft 499 kts 98°
2026-05-06 02:14 -34.01468 10.36906 39101 ft 499 kts 98°
2026-05-06 02:14 -34.01777 10.45258 39100 ft 498 kts 98°
2026-05-06 02:15 -34.02078 10.53599 39101 ft 498 kts 98°
2026-05-06 02:15 -34.02377 10.61923 39100 ft 497 kts 98°
2026-05-06 02:16 -34.02664 10.70236 39100 ft 496 kts 98°
2026-05-06 02:16 -34.02948 10.78525 39100 ft 494 kts 98°
2026-05-06 02:17 -34.03226 10.86794 39101 ft 493 kts 98°
2026-05-06 02:17 -34.03496 10.95038 39101 ft 492 kts 97°
2026-05-06 02:18 -34.03761 11.03271 39101 ft 491 kts 97°
2026-05-06 02:18 -34.04021 11.11422 39100 ft 489 kts 97°
2026-05-06 02:19 -34.04275 11.19613 39100 ft 488 kts 97°
2026-05-06 02:19 -34.04523 11.27777 39100 ft 486 kts 98°
2026-05-06 02:20 -34.04883 11.39999 39101 ft 486 kts 97°
2026-05-06 02:21 -34.05116 11.48132 39100 ft 485 kts 97°
2026-05-06 02:21 -34.05345 11.56250 39100 ft 484 kts 97°
2026-05-06 02:22 -34.05567 11.64357 39101 ft 484 kts 98°
2026-05-06 02:22 -34.05784 11.72461 39100 ft 483 kts 98°
2026-05-06 02:23 -34.05996 11.80564 39101 ft 483 kts 98°
2026-05-06 02:23 -34.06199 11.88661 39100 ft 483 kts 98°
2026-05-06 02:24 -34.06399 11.96751 39100 ft 483 kts 97°
2026-05-06 02:24 -34.06593 12.04842 39101 ft 483 kts 97°
2026-05-06 02:25 -34.06785 12.12935 39100 ft 483 kts 97°
2026-05-06 02:25 -34.06969 12.21032 39101 ft 483 kts 97°
2026-05-06 02:26 -34.07148 12.29133 39100 ft 483 kts 97°
2026-05-06 02:26 -34.07321 12.37228 39100 ft 482 kts 97°
2026-05-06 02:27 -34.07489 12.45307 39101 ft 482 kts 97°
2026-05-06 02:27 -34.07650 12.53381 39100 ft 481 kts 97°
2026-05-06 02:28 -34.07806 12.61438 39101 ft 481 kts 97°
2026-05-06 02:28 -34.07957 12.69442 39101 ft 480 kts 97°
2026-05-06 02:29 -34.08105 12.77536 39100 ft 479 kts 97°
2026-05-06 02:29 -34.08244 12.85512 39101 ft 478 kts 97°
2026-05-06 02:30 -34.08378 12.93532 39100 ft 478 kts 97°
2026-05-06 02:30 -34.08507 13.01541 39100 ft 477 kts 97°
2026-05-06 02:31 -34.08627 13.09532 39100 ft 476 kts 98°
2026-05-06 02:31 -34.08741 13.17511 39099 ft 476 kts 98°
2026-05-06 02:32 -34.08859 13.25470 39055 ft 474 kts 98°
2026-05-06 02:32 -34.08972 13.33422 39054 ft 474 kts 98°
2026-05-06 02:33 -34.09078 13.41367 39054 ft 473 kts 98°
2026-05-06 02:33 -34.09111 13.43998 39054 ft 473 kts 98°
2026-05-06 02:34 -34.09268 13.57242 39054 ft 473 kts 98°
2026-05-06 02:34 -34.09353 13.65171 39064 ft 473 kts 98°
2026-05-06 02:35 -34.09435 13.73103 39064 ft 473 kts 98°
2026-05-06 02:35 -34.09513 13.81030 39063 ft 472 kts 98°
2026-05-06 02:36 -34.09588 13.88950 39064 ft 472 kts 98°
2026-05-06 02:36 -34.09655 13.96827 39064 ft 473 kts 98°
2026-05-06 02:37 -34.09716 14.04755 39064 ft 473 kts 98°
2026-05-06 02:37 -34.09772 14.12687 39063 ft 473 kts 98°
2026-05-06 02:38 -34.09822 14.20621 39064 ft 473 kts 98°
2026-05-06 02:38 -34.09868 14.28555 39064 ft 473 kts 98°
2026-05-06 02:39 -34.09909 14.36474 39073 ft 472 kts 98°
2026-05-06 02:39 -34.09947 14.44391 39073 ft 472 kts 98°
2026-05-06 02:40 -34.09977 14.52300 39073 ft 471 kts 98°
2026-05-06 02:40 -34.10004 14.60199 39063 ft 471 kts 98°
2026-05-06 02:41 -34.10024 14.68093 39064 ft 470 kts 98°
2026-05-06 02:41 -34.10040 14.75972 39063 ft 469 kts 98°
2026-05-06 02:42 -34.10051 14.83835 39064 ft 469 kts 98°
2026-05-06 02:42 -34.10058 14.91698 39063 ft 468 kts 98°
2026-05-06 02:43 -34.10059 14.99544 39064 ft 468 kts 98°
2026-05-06 02:43 -34.10055 15.07382 39068 ft 467 kts 98°
2026-05-06 02:44 -34.10046 15.15211 39073 ft 466 kts 98°
2026-05-06 02:44 -34.10033 15.23031 39073 ft 466 kts 98°
2026-05-06 02:45 -34.10014 15.30842 39073 ft 466 kts 98°
2026-05-06 02:45 -34.09989 15.38656 39073 ft 465 kts 98°
2026-05-06 02:46 -34.09960 15.46456 39073 ft 465 kts 98°
2026-05-06 02:46 -34.09930 15.54193 39072 ft 464 kts 98°
2026-05-06 02:47 -34.09895 15.61987 39072 ft 465 kts 98°
2026-05-06 02:47 -34.09903 15.69771 39073 ft 462 kts 100°
2026-05-06 02:48 -34.10020 15.77525 39072 ft 462 kts 100°
2026-05-06 02:48 -34.09999 15.85297 39073 ft 466 kts 97°
2026-05-06 02:49 -34.09788 15.93112 39073 ft 466 kts 97°
2026-05-06 02:49 -34.09590 16.00921 39073 ft 466 kts 97°
2026-05-06 02:50 -34.09410 16.08732 39082 ft 466 kts 97°
2026-05-06 02:50 -34.09220 16.16545 39082 ft 466 kts 97°
2026-05-06 02:51 -34.09026 16.24358 39082 ft 466 kts 97°
2026-05-06 02:51 -34.08827 16.32167 39070 ft 466 kts 97°
2026-05-06 02:51 -34.08723 16.36071 38682 ft 465 kts 97°
2026-05-06 02:52 -34.08616 16.39939 38428 ft 458 kts 97°
2026-05-06 02:52 -34.08508 16.43739 38262 ft 448 kts 97°
2026-05-06 02:52 -34.08412 16.47457 38102 ft 437 kts 99°
2026-05-06 02:52 -34.08512 16.51058 37922 ft 423 kts 103°
2026-05-06 02:53 -34.08705 16.54558 37761 ft 413 kts 103°
2026-05-06 02:53 -34.08915 16.57977 37592 ft 405 kts 104°
2026-05-06 02:53 -34.09127 16.61334 37375 ft 398 kts 104°
2026-05-06 02:53 -34.09339 16.64642 37093 ft 393 kts 104°
2026-05-06 02:54 -34.09549 16.67911 36801 ft 389 kts 104°
2026-05-06 02:54 -34.09757 16.71140 36500 ft 385 kts 104°
2026-05-06 02:54 -34.09961 16.74342 36195 ft 380 kts 103°
2026-05-06 02:54 -34.10163 16.77511 35857 ft 378 kts 103°
2026-05-06 02:55 -34.10362 16.80661 35527 ft 375 kts 103°
2026-05-06 02:55 -34.10564 16.83797 35189 ft 373 kts 103°
2026-05-06 02:55 -34.10754 16.86878 34886 ft 373 kts 103°
2026-05-06 02:55 -34.10942 16.90016 34606 ft 369 kts 103°
2026-05-06 02:56 -34.11118 16.92962 34270 ft 365 kts 102°
2026-05-06 02:56 -34.11307 16.95954 33933 ft 362 kts 103°
2026-05-06 02:56 -34.11496 16.98911 33577 ft 359 kts 102°
2026-05-06 02:56 -34.11680 17.01891 33263 ft 360 kts 102°
2026-05-06 02:57 -34.11861 17.04844 33069 ft 357 kts 102°
2026-05-06 02:57 -34.12043 17.07810 32926 ft 352 kts 101°
2026-05-06 02:57 -34.12211 17.10723 32578 ft 347 kts 101°
2026-05-06 02:57 -34.12392 17.13636 32224 ft 346 kts 100°
2026-05-06 02:58 -34.12573 17.16518 31877 ft 344 kts 99°
2026-05-06 02:58 -34.12742 17.19387 31549 ft 342 kts 98°
2026-05-06 02:58 -34.12906 17.22221 31210 ft 335 kts 98°
2026-05-06 02:58 -34.13075 17.25027 30812 ft 336 kts 97°
2026-05-06 02:59 -34.13238 17.27829 30500 ft 333 kts 97°
2026-05-06 02:59 -34.13348 17.29677 30316 ft 333 kts 97°
2026-05-06 02:59 -34.13528 17.32485 30126 ft 330 kts 97°
2026-05-06 02:59 -34.13692 17.35183 29901 ft 324 kts 95°
2026-05-06 03:00 -34.13844 17.37891 29555 ft 324 kts 95°
2026-05-06 03:00 -34.14001 17.40601 29277 ft 324 kts 95°
2026-05-06 03:00 -34.14151 17.43293 29040 ft 320 kts 94°
2026-05-06 03:00 -34.14300 17.45957 28752 ft 318 kts 94°
2026-05-06 03:01 -34.14449 17.48616 28455 ft 316 kts 94°
2026-05-06 03:01 -34.14598 17.51260 28149 ft 315 kts 93°
2026-05-06 03:01 -34.14748 17.53889 27846 ft 314 kts 92°
2026-05-06 03:01 -34.14900 17.56493 27507 ft 310 kts 93°
2026-05-06 03:02 -34.15055 17.59093 27180 ft 309 kts 92°
2026-05-06 03:02 -34.15197 17.61683 26925 ft 307 kts 92°
2026-05-06 03:02 -34.15345 17.64249 26653 ft 305 kts 92°
2026-05-06 03:02 -34.15484 17.66792 26335 ft 301 kts 93°
2026-05-06 03:03 -34.15621 17.69304 25879 ft 300 kts 91°
2026-05-06 03:03 -34.15762 17.71811 25409 ft 298 kts 91°
2026-05-06 03:03 -34.15899 17.74296 24947 ft 295 kts 91°
2026-05-06 03:03 -34.16034 17.76757 24482 ft 293 kts 91°
2026-05-06 03:04 -34.16157 17.78997 24080 ft 290 kts 91°
2026-05-06 03:04 -34.16288 17.81416 23638 ft 287 kts 91°
2026-05-06 03:04 -34.16418 17.83812 23189 ft 285 kts 91°
2026-05-06 03:04 -34.16547 17.86190 22730 ft 283 kts 91°
2026-05-06 03:05 -34.16675 17.88554 22259 ft 280 kts 92°
2026-05-06 03:05 -34.16801 17.90896 21756 ft 279 kts 92°
2026-05-06 03:05 -34.16901 17.92753 21376 ft 277 kts 93°
2026-05-06 03:05 -34.16974 17.94114 21100 ft 275 kts 93°
2026-05-06 03:06 -34.17085 17.96192 20669 ft 273 kts 94°
2026-05-06 03:06 -34.17207 17.98503 20181 ft 271 kts 94°
2026-05-06 03:06 -34.17326 18.00738 19717 ft 270 kts 94°
2026-05-06 03:06 -34.17446 18.03018 19251 ft 267 kts 95°
2026-05-06 03:07 -34.17564 18.05253 18765 ft 266 kts 95°
2026-05-06 03:07 -34.17679 18.07447 18281 ft 264 kts 96°
2026-05-06 03:07 -34.17795 18.09655 17823 ft 263 kts 96°
2026-05-06 03:07 -34.17909 18.11851 17363 ft 261 kts 96°
2026-05-06 03:08 -34.18022 18.14027 16923 ft 258 kts 97°
2026-05-06 03:08 -34.18133 18.16178 16483 ft 255 kts 97°
2026-05-06 03:08 -34.18242 18.18307 16043 ft 253 kts 97°
2026-05-06 03:08 -34.18351 18.20417 15600 ft 250 kts 97°
2026-05-06 03:09 -34.18459 18.22504 15154 ft 248 kts 97°
2026-05-06 03:09 -34.18562 18.24570 14718 ft 245 kts 97°
2026-05-06 03:09 -34.18665 18.26617 14286 ft 243 kts 98°
2026-05-06 03:09 -34.18769 18.28644 13854 ft 240 kts 97°
2026-05-06 03:10 -34.18871 18.30648 13423 ft 238 kts 97°
2026-05-06 03:10 -34.18972 18.32629 12998 ft 235 kts 97°
2026-05-06 03:10 -34.19072 18.34593 12567 ft 233 kts 98°
2026-05-06 03:10 -34.19172 18.36539 12142 ft 231 kts 98°
2026-05-06 03:11 -34.19268 18.38467 11732 ft 228 kts 98°
2026-05-06 03:11 -34.19358 18.40319 11602 ft 213 kts 98°
2026-05-06 03:11 -34.19438 18.42045 11462 ft 199 kts 98°
2026-05-06 03:11 -34.19517 18.43676 11237 ft 191 kts 98°
2026-05-06 03:12 -34.19596 18.45256 10939 ft 187 kts 98°
2026-05-06 03:12 -34.19675 18.46815 10608 ft 186 kts 99°
2026-05-06 03:12 -34.19755 18.48377 10247 ft 187 kts 98°
2026-05-06 03:12 -34.19833 18.49939 9900 ft 186 kts 98°
2026-05-06 03:13 -34.19912 18.51496 9556 ft 186 kts 98°
2026-05-06 03:13 -34.19988 18.53048 9225 ft 184 kts 98°
2026-05-06 03:13 -34.20057 18.54071 8994 ft 182 kts 104°
2026-05-06 03:13 -34.20498 18.55477 8650 ft 178 kts 120°
2026-05-06 03:14 -34.20997 18.56552 8366 ft 177 kts 123°
2026-05-06 03:14 -34.21622 18.57832 8035 ft 176 kts 123°
2026-05-06 03:14 -34.22248 18.59105 7714 ft 176 kts 123°
2026-05-06 03:14 -34.22804 18.60236 7411 ft 176 kts 123°
2026-05-06 03:15 -34.23420 18.61487 7089 ft 175 kts 123°
2026-05-06 03:15 -34.24052 18.62770 6754 ft 175 kts 123°
2026-05-06 03:15 -34.24674 18.64030 6412 ft 175 kts 123°
2026-05-06 03:15 -34.25294 18.65288 6159 ft 174 kts 123°
2026-05-06 03:16 -34.25915 18.66549 6119 ft 174 kts 123°
2026-05-06 03:16 -34.26534 18.67807 6119 ft 174 kts 123°
2026-05-06 03:16 -34.27153 18.69064 6119 ft 174 kts 123°
2026-05-06 03:16 -34.27822 18.70273 6100 ft 172 kts 137°
2026-05-06 03:17 -34.28894 18.70837 6124 ft 171 kts 172°
2026-05-06 03:17 -34.30058 18.71103 6116 ft 171 kts 154°
2026-05-06 03:17 -34.31029 18.71926 6123 ft 171 kts 140°
2026-05-06 03:17 -34.31903 18.72882 6120 ft 172 kts 138°
2026-05-06 03:18 -34.32776 18.73869 6119 ft 172 kts 138°
2026-05-06 03:18 -34.33650 18.74860 6119 ft 172 kts 138°
2026-05-06 03:18 -34.34521 18.75850 6119 ft 172 kts 138°
2026-05-06 03:18 -34.35389 18.76839 6118 ft 171 kts 138°
2026-05-06 03:19 -34.36256 18.77829 6118 ft 171 kts 137°
2026-05-06 03:19 -34.37124 18.78820 6005 ft 173 kts 138°
2026-05-06 03:19 -34.38001 18.79821 5766 ft 172 kts 137°
2026-05-06 03:19 -34.38870 18.80811 5528 ft 171 kts 138°
2026-05-06 03:20 -34.40598 18.82789 5012 ft 171 kts 138°
2026-05-06 03:20 -34.41529 18.83665 4730 ft 171 kts 158°
2026-05-06 03:20 -34.42700 18.83688 4440 ft 174 kts 198°
2026-05-06 03:21 -34.43606 18.82718 4172 ft 181 kts 239°
2026-05-06 03:21 -34.43768 18.81210 4029 ft 187 kts 281°
2026-05-06 03:21 -34.43117 18.79844 4024 ft 190 kts 310°
2026-05-06 03:21 -34.42161 18.78726 4022 ft 191 kts 317°
2026-05-06 03:22 -34.41159 18.77661 4020 ft 192 kts 318°
2026-05-06 03:22 -34.40150 18.76602 4019 ft 192 kts 318°
2026-05-06 03:22 -34.39120 18.75577 4002 ft 192 kts 326°
2026-05-06 03:22 -34.38000 18.74697 4021 ft 192 kts 327°
2026-05-06 03:23 -34.36870 18.73838 3950 ft 194 kts 328°
2026-05-06 03:23 -34.35629 18.73250 3693 ft 192 kts 354°
2026-05-06 03:23 -34.34308 18.73233 3479 ft 188 kts
2026-05-06 03:23 -34.33008 18.73345 3254 ft 187 kts
2026-05-06 03:24 -34.31719 18.73477 3025 ft 185 kts
2026-05-06 03:24 -34.30458 18.73612 2894 ft 178 kts
2026-05-06 03:24 -34.29256 18.73580 2765 ft 171 kts 346°
2026-05-06 03:24 -34.28191 18.73016 2581 ft 166 kts 327°
2026-05-06 03:25 -34.27287 18.72223 2399 ft 165 kts 321°
2026-05-06 03:25 -34.26364 18.71448 2185 ft 164 kts 335°
2026-05-06 03:25 -34.25300 18.70926 2043 ft 162 kts 340°
2026-05-06 03:25 -34.24253 18.70484 2015 ft 161 kts 342°
2026-05-06 03:26 -34.23189 18.70060 2002 ft 162 kts 342°
2026-05-06 03:26 -34.22103 18.69640 1996 ft 162 kts 342°
2026-05-06 03:26 -34.21045 18.69236 1992 ft 162 kts 343°
2026-05-06 03:26 -34.19973 18.68830 1991 ft 161 kts 343°
2026-05-06 03:27 -34.18901 18.68426 1992 ft 161 kts 343°
2026-05-06 03:27 -34.17829 18.68024 1992 ft 161 kts 343°
2026-05-06 03:27 -34.16758 18.67622 1992 ft 161 kts 343°
2026-05-06 03:27 -34.15689 18.67222 1992 ft 161 kts 343°
2026-05-06 03:28 -34.14619 18.66822 1991 ft 161 kts 342°
2026-05-06 03:28 -34.13548 18.66419 1991 ft 161 kts 343°
2026-05-06 03:28 -34.12479 18.66019 1990 ft 161 kts 343°
2026-05-06 03:28 -34.11409 18.65619 1990 ft 160 kts 342°
2026-05-06 03:29 -34.10385 18.65235 1977 ft 149 kts 342°
2026-05-06 03:29 -34.09416 18.64869 1982 ft 145 kts 341°
2026-05-06 03:29 -34.08509 18.64357 1896 ft 143 kts 327°
2026-05-06 03:29 -34.07674 18.63717 1857 ft 143 kts 339°
2026-05-06 03:30 -34.06696 18.63447 1676 ft 143 kts 347°
2026-05-06 03:30 -34.05742 18.63120 1588 ft 142 kts 336°
2026-05-06 03:30 -34.04802 18.62757 1457 ft 143 kts 348°
2026-05-06 03:30 -34.03830 18.62522 1244 ft 142 kts 345°
2026-05-06 03:31 -34.02884 18.62219 1045 ft 140 kts 341°
2026-05-06 03:31 -34.01946 18.61905 854 ft 140 kts 343°
2026-05-06 03:31 -34.01008 18.61610 661 ft 139 kts 343°
2026-05-06 03:31 -34.00075 18.61308 469 ft 139 kts 345°
2026-05-06 03:32 -33.99145 18.61011 287 ft 138 kts 344°
2026-05-06 03:32 -33.98243 18.60713 177 ft 127 kts 347°
2026-05-06 03:32 -33.97476 18.60477 156 ft 99 kts 345°
2026-05-06 03:32 -33.97151 18.60334 159 ft 17 kts 311°
2026-05-06 03:33 -33.97104 18.60218 158 ft 12 kts 288°
2026-05-06 03:33 -33.97085 18.60140 158 ft 7 kts 287°
2026-05-06 03:33 -33.97081 18.60127 158 ft 2 kts 287°
2026-05-06 03:33 -33.97076 18.60106 158 ft 4 kts 286°
2026-05-06 03:34 -33.97068 18.60073 158 ft 4 kts 285°
2026-05-06 03:34 -33.97058 18.60028 158 ft 7 kts 286°
2026-05-06 03:34 -33.97033 18.59974 158 ft 6 kts 310°
2026-05-06 03:34 -33.97001 18.59941 158 ft 7 kts 328°
2026-05-06 03:35 -33.96948 18.59917 158 ft 6 kts 345°
2026-05-06 03:35 -33.96916 18.59906 158 ft 3 kts 345°
2026-05-06 03:35 -33.96902 18.59902 158 ft 2 kts 346°
2026-05-06 03:35 -33.96885 18.59898 158 ft 1 kts 356°
2026-05-06 03:36 -33.96870 18.59903 158 ft 3 kts 20°
2026-05-06 03:36 -33.96860 18.59920 158 ft 3 kts 60°
2026-05-06 03:36 -33.96854 18.59938 158 ft 2 kts 71°
2026-05-06 03:36 -33.96853 18.59945 158 ft 0 kts 72°
2026-05-06 03:37 -33.96851 18.59950 158 ft 2 kts 72°
2026-05-06 03:37 -33.96849 18.59959 158 ft 2 kts 73°
2026-05-06 03:37 -33.96847 18.59968 158 ft 0 kts 74°